Time,TemperatureF,DewpointF,PressureIn,WindDirection,WindDirectionDegrees,WindSpeedMPH,WindSpeedGustMPH,Humidity,HourlyPrecipIn,Conditions,Clouds,dailyrainin,SoftwareType,DateUTC
2013-03-22 00:02:00,20.0,16.0,30.00,North,350,0.0,32.0,86,0.00,,,0.00,,2013-03-22 05:02:00,
2013-03-22 00:12:00,20.0,16.0,30.00,North,350,0.0,32.0,86,0.00,,,0.00,,2013-03-22 05:12:00,
2013-03-22 00:22:00,20.0,16.0,30.00,North,350,0.0,0.0,86,0.00,,,0.00,,2013-03-22 05:22:00,
2013-03-22 00:32:00,20.0,16.0,30.00,North,350,0.0,0.0,86,0.00,,,0.00,,2013-03-22 05:32:00,
2013-03-22 00:42:00,20.0,16.0,30.00,North,350,0.0,0.0,86,0.00,,,0.00,,2013-03-22 05:42:00,
2013-03-22 00:52:00,20.0,16.0,30.00,North,350,0.0,0.0,86,0.00,,,0.00,,2013-03-22 05:52:00,
2013-03-22 01:02:00,20.0,16.0,30.00,North,350,0.0,0.0,86,0.00,,,0.00,,2013-03-22 06:02:00,
2013-03-22 01:12:00,20.0,16.0,30.00,North,350,0.0,0.0,86,0.00,,,0.00,,2013-03-22 06:12:00,
2013-03-22 01:22:00,20.0,16.0,30.00,North,350,0.0,0.0,86,0.00,,,0.00,,2013-03-22 06:22:00,
2013-03-22 01:32:00,20.0,16.0,30.00,North,350,0.0,0.0,86,0.00,,,0.00,,2013-03-22 06:32:00,
2013-03-22 01:42:00,20.0,16.0,30.00,North,350,0.0,0.0,86,0.00,,,0.00,,2013-03-22 06:42:00,
2013-03-22 01:52:00,20.0,16.0,30.00,North,350,0.0,32.0,86,0.00,,,0.00,,2013-03-22 06:52:00,
2013-03-22 02:02:00,20.0,16.0,30.00,North,350,0.0,32.0,86,0.00,,,0.00,,2013-03-22 07:02:00,
2013-03-22 02:12:00,20.0,16.0,30.00,North,350,0.0,32.0,86,0.00,,,0.00,,2013-03-22 07:12:00,
2013-03-22 02:22:00,20.0,16.0,30.00,North,350,0.0,32.0,86,0.00,,,0.00,,2013-03-22 07:22:00,
2013-03-22 02:32:00,20.0,16.0,30.00,North,350,0.0,32.0,86,0.00,,,0.00,,2013-03-22 07:32:00,
2013-03-22 02:42:00,20.0,16.0,30.00,North,350,0.0,32.0,86,0.00,,,0.00,,2013-03-22 07:42:00,
2013-03-22 02:52:00,19.0,16.0,30.00,North,350,0.0,32.0,86,0.00,,,0.00,,2013-03-22 07:52:00,
2013-03-22 03:03:00,19.0,16.0,30.00,North,350,0.0,32.0,86,0.00,,,0.00,,2013-03-22 08:03:00,
2013-03-22 03:12:00,19.0,16.0,30.00,North,350,0.0,32.0,86,0.00,,,0.00,,2013-03-22 08:12:00,
2013-03-22 03:22:00,19.0,16.0,30.00,North,350,0.0,32.0,86,0.00,,,0.00,,2013-03-22 08:22:00,
2013-03-22 03:32:00,19.0,16.0,30.00,North,350,0.0,32.0,86,0.00,,,0.00,,2013-03-22 08:32:00,
2013-03-22 03:42:00,19.0,16.0,30.00,North,350,0.0,32.0,86,0.00,,,0.00,,2013-03-22 08:42:00,
2013-03-22 03:52:00,18.0,15.0,30.00,North,350,0.0,32.0,86,0.00,,,0.00,,2013-03-22 08:52:00,
2013-03-22 04:02:00,18.0,15.0,30.00,North,350,0.0,32.0,86,0.00,,,0.00,,2013-03-22 09:02:00,
2013-03-22 04:12:00,18.0,15.0,30.00,North,350,0.0,32.0,86,0.00,,,0.00,,2013-03-22 09:12:00,
2013-03-22 04:22:00,18.0,15.0,30.00,North,350,0.0,32.0,86,0.00,,,0.00,,2013-03-22 09:22:00,
2013-03-22 04:32:00,18.0,15.0,30.00,North,350,0.0,32.0,86,0.00,,,0.00,,2013-03-22 09:32:00,
2013-03-22 04:42:00,18.0,15.0,30.00,North,350,0.0,32.0,86,0.00,,,0.00,,2013-03-22 09:42:00,
2013-03-22 04:53:00,18.0,15.0,30.00,North,350,0.0,32.0,86,0.00,,,0.00,,2013-03-22 09:53:00,
2013-03-22 05:03:00,18.0,15.0,30.00,North,0,0.0,32.0,86,0.00,,,0.00,,2013-03-22 10:03:00,
2013-03-22 05:12:00,18.0,15.0,30.00,North,0,0.0,32.0,86,0.00,,,0.00,,2013-03-22 10:12:00,
2013-03-22 05:22:00,18.0,15.0,30.00,North,0,0.0,32.0,86,0.00,,,0.00,,2013-03-22 10:22:00,
2013-03-22 05:32:00,17.0,14.0,30.00,North,0,0.0,32.0,86,0.00,,,0.00,,2013-03-22 10:32:00,
2013-03-22 05:42:00,17.0,14.0,30.00,North,0,0.0,32.0,86,0.00,,,0.00,,2013-03-22 10:42:00,
2013-03-22 05:52:00,17.0,14.0,30.00,North,0,0.0,32.0,86,0.00,,,0.00,,2013-03-22 10:52:00,
2013-03-22 06:03:00,18.0,15.0,30.00,North,0,0.0,32.0,86,0.00,,,0.00,,2013-03-22 11:03:00,
2013-03-22 06:12:00,18.0,15.0,30.00,North,0,0.0,32.0,86,0.00,,,0.00,,2013-03-22 11:12:00,
2013-03-22 06:22:00,17.0,14.0,30.00,North,0,0.0,32.0,86,0.00,,,0.00,,2013-03-22 11:22:00,
2013-03-22 06:32:00,17.0,14.0,30.00,North,0,0.0,32.0,86,0.00,,,0.00,,2013-03-22 11:32:00,
2013-03-22 06:42:00,17.0,14.0,30.00,North,0,0.0,32.0,86,0.00,,,0.00,,2013-03-22 11:42:00,
2013-03-22 06:52:00,17.0,14.0,30.00,North,0,0.0,32.0,86,0.00,,,0.00,,2013-03-22 11:52:00,
2013-03-22 07:02:00,17.0,14.0,30.00,North,0,0.0,32.0,86,0.00,,,0.00,,2013-03-22 12:02:00,
2013-03-22 07:12:00,17.0,14.0,30.00,North,0,0.0,32.0,86,0.00,,,0.00,,2013-03-22 12:12:00,
2013-03-22 07:22:00,17.0,14.0,30.00,North,0,0.0,32.0,86,0.00,,,0.00,,2013-03-22 12:22:00,
2013-03-22 07:32:00,17.0,14.0,30.00,North,0,0.0,32.0,86,0.00,,,0.00,,2013-03-22 12:32:00,
2013-03-22 07:42:00,17.0,14.0,30.00,North,0,0.0,32.0,86,0.00,,,0.00,,2013-03-22 12:42:00,
2013-03-22 07:52:00,17.0,14.0,30.00,North,0,0.0,32.0,86,0.00,,,0.00,,2013-03-22 12:52:00,
2013-03-22 08:02:00,18.0,15.0,30.00,North,0,0.0,32.0,86,0.00,,,0.00,,2013-03-22 13:02:00,
2013-03-22 08:12:00,18.0,15.0,30.00,North,0,0.0,32.0,86,0.00,,,0.00,,2013-03-22 13:12:00,
2013-03-22 08:22:00,19.0,16.0,30.00,North,0,0.0,32.0,86,0.00,,,0.00,,2013-03-22 13:22:00,
2013-03-22 08:32:00,22.0,18.0,30.00,North,0,0.0,32.0,86,0.00,,,0.00,,2013-03-22 13:32:00,
2013-03-22 08:42:00,22.0,18.0,30.00,North,0,0.0,32.0,86,0.00,,,0.00,,2013-03-22 13:42:00,
2013-03-22 08:52:00,24.0,20.0,30.00,North,0,0.0,32.0,86,0.00,,,0.00,,2013-03-22 13:52:00,
2013-03-22 09:02:00,24.0,20.0,30.00,North,0,0.0,32.0,86,0.00,,,0.00,,2013-03-22 14:02:00,
2013-03-22 09:12:00,24.0,20.0,30.00,North,0,0.0,32.0,86,0.00,,,0.00,,2013-03-22 14:12:00,
2013-03-22 09:22:00,26.0,22.0,30.00,North,0,0.0,32.0,86,0.00,,,0.00,,2013-03-22 14:22:00,
2013-03-22 09:32:00,26.0,22.0,30.00,North,0,0.0,32.0,86,0.00,,,0.00,,2013-03-22 14:32:00,
2013-03-22 09:42:00,26.0,22.0,30.00,North,0,0.0,32.0,86,0.00,,,0.00,,2013-03-22 14:42:00,
2013-03-22 09:52:00,27.0,23.0,30.00,SSE,165,1.0,32.0,86,0.00,,,0.00,,2013-03-22 14:52:00,
2013-03-22 10:02:00,28.0,24.0,30.00,SSW,210,1.0,32.0,86,0.00,,,0.00,,2013-03-22 15:02:00,
2013-03-22 10:12:00,28.0,24.0,30.00,SSW,210,1.0,32.0,86,0.00,,,0.00,,2013-03-22 15:12:00,
2013-03-22 10:32:00,30.0,26.0,30.00,SE,140,1.0,32.0,86,0.00,,,0.00,,2013-03-22 15:32:00,
2013-03-22 10:42:00,30.0,26.0,30.00,SE,140,1.0,32.0,86,0.00,,,0.00,,2013-03-22 15:42:00,
2013-03-22 10:53:00,30.0,26.0,30.00,SE,125,1.0,32.0,86,0.00,,,0.00,,2013-03-22 15:53:00,
2013-03-22 11:02:00,32.0,28.0,30.00,SE,145,5.0,32.0,86,0.00,,,0.00,,2013-03-22 16:02:00,
2013-03-22 11:13:00,31.0,27.0,30.00,North,357,3.0,32.0,86,0.00,,,0.00,,2013-03-22 16:13:00,
2013-03-22 11:22:00,31.0,27.0,30.00,North,357,3.0,32.0,86,0.00,,,0.00,,2013-03-22 16:22:00,
2013-03-22 11:32:00,32.0,28.0,30.00,West,280,2.0,32.0,86,0.00,,,0.00,,2013-03-22 16:32:00,
2013-03-22 11:42:00,33.0,29.0,30.00,West,274,2.0,32.0,86,0.00,,,0.00,,2013-03-22 16:42:00,
2013-03-22 11:52:00,33.0,29.0,30.00,West,274,2.0,32.0,86,0.00,,,0.00,,2013-03-22 16:52:00,
2013-03-22 12:03:00,33.0,29.0,30.00,WSW,255,2.0,32.0,86,0.00,,,0.00,,2013-03-22 17:03:00,
2013-03-22 12:12:00,34.0,30.0,30.00,North,350,3.0,32.0,86,0.00,,,0.00,,2013-03-22 17:12:00,
2013-03-22 12:23:00,34.0,30.0,30.00,North,350,3.0,32.0,86,0.00,,,0.00,,2013-03-22 17:23:00,
2013-03-22 12:32:00,34.0,30.0,30.00,West,277,2.0,32.0,86,0.00,,,0.00,,2013-03-22 17:32:00,
2013-03-22 12:42:00,34.0,30.0,30.00,West,277,2.0,32.0,86,0.00,,,0.00,,2013-03-22 17:42:00,
2013-03-22 12:53:00,35.0,31.0,30.00,NNW,338,1.0,32.0,86,0.00,,,0.00,,2013-03-22 17:53:00,
2013-03-22 13:02:00,36.0,32.0,30.00,West,267,2.0,32.0,86,0.00,,,0.00,,2013-03-22 18:02:00,
2013-03-22 13:12:00,36.0,32.0,30.00,West,267,2.0,32.0,86,0.00,,,0.00,,2013-03-22 18:12:00,
2013-03-22 13:22:00,36.0,32.0,30.00,West,259,5.0,32.0,86,0.00,,,0.00,,2013-03-22 18:22:00,
2013-03-22 13:32:00,39.0,35.0,30.00,SSE,165,5.0,32.0,86,0.00,,,0.00,,2013-03-22 18:32:00,
2013-03-22 13:42:00,39.0,35.0,30.00,SSE,165,5.0,32.0,86,0.00,,,0.00,,2013-03-22 18:42:00,
2013-03-22 13:52:00,37.0,33.0,30.00,NE,37,1.0,32.0,86,0.00,,,0.00,,2013-03-22 18:52:00,
2013-03-22 14:02:00,39.0,35.0,30.00,NW,321,3.0,32.0,86,0.00,,,0.00,,2013-03-22 19:02:00,
2013-03-22 14:12:00,39.0,35.0,30.00,NW,321,3.0,32.0,86,0.00,,,0.00,,2013-03-22 19:12:00,
2013-03-22 14:22:00,38.0,34.0,30.00,WNW,289,3.0,32.0,86,0.00,,,0.00,,2013-03-22 19:22:00,
2013-03-22 14:32:00,38.0,34.0,30.00,NW,320,1.0,32.0,86,0.00,,,0.00,,2013-03-22 19:32:00,
2013-03-22 14:42:00,38.0,34.0,30.00,NW,320,1.0,32.0,86,0.00,,,0.00,,2013-03-22 19:42:00,
2013-03-22 14:52:00,39.0,35.0,30.00,NE,47,5.0,32.0,86,0.00,,,0.00,,2013-03-22 19:52:00,
2013-03-22 15:02:00,42.0,38.0,30.00,SW,215,3.0,32.0,86,0.00,,,0.00,,2013-03-22 20:02:00,
2013-03-22 15:12:00,42.0,38.0,30.00,SW,215,3.0,32.0,86,0.00,,,0.00,,2013-03-22 20:12:00,
2013-03-22 15:22:00,41.0,37.0,30.00,West,260,5.0,32.0,86,0.00,,,0.00,,2013-03-22 20:22:00,
2013-03-22 15:32:00,41.0,37.0,30.00,West,266,1.0,32.0,86,0.00,,,0.00,,2013-03-22 20:32:00,
2013-03-22 15:42:00,41.0,37.0,30.00,West,266,1.0,32.0,86,0.00,,,0.00,,2013-03-22 20:42:00,
2013-03-22 15:52:00,41.0,37.0,30.00,NNE,24,1.0,32.0,86,0.00,,,0.00,,2013-03-22 20:52:00,
2013-03-22 16:02:00,41.0,37.0,30.00,NW,323,0.0,32.0,86,0.00,,,0.00,,2013-03-22 21:02:00,
2013-03-22 16:12:00,41.0,37.0,30.00,NNW,344,3.0,32.0,86,0.00,,,0.00,,2013-03-22 21:12:00,
2013-03-22 16:22:00,41.0,37.0,30.00,NNW,344,3.0,32.0,86,0.00,,,0.00,,2013-03-22 21:22:00,
2013-03-22 16:32:00,42.0,38.0,30.00,WNW,294,5.0,32.0,86,0.00,,,0.00,,2013-03-22 21:32:00,
2013-03-22 16:42:00,42.0,38.0,30.00,WNW,294,5.0,32.0,86,0.00,,,0.00,,2013-03-22 21:42:00,
2013-03-22 16:53:00,41.0,37.0,30.00,NNW,344,5.0,32.0,86,0.00,,,0.00,,2013-03-22 21:53:00,
2013-03-22 17:02:00,42.0,38.0,30.00,SSW,201,1.0,32.0,86,0.00,,,0.00,,2013-03-22 22:02:00,
2013-03-22 17:12:00,42.0,38.0,30.00,SSW,201,1.0,32.0,86,0.00,,,0.00,,2013-03-22 22:12:00,
2013-03-22 17:23:00,42.0,38.0,30.00,SSW,202,0.0,32.0,86,0.00,,,0.00,,2013-03-22 22:23:00,
2013-03-22 17:32:00,41.0,37.0,30.00,WNW,282,1.0,32.0,86,0.00,,,0.00,,2013-03-22 22:32:00,
2013-03-22 17:42:00,41.0,37.0,30.00,WNW,282,1.0,32.0,86,0.00,,,0.00,,2013-03-22 22:42:00,
2013-03-22 17:52:00,41.0,37.0,30.00,NW,322,0.0,32.0,86,0.00,,,0.00,,2013-03-22 22:52:00,
2013-03-22 18:02:00,41.0,37.0,30.00,West,265,1.0,32.0,86,0.00,,,0.00,,2013-03-22 23:02:00,
2013-03-22 18:12:00,41.0,37.0,30.00,West,265,1.0,32.0,86,0.00,,,0.00,,2013-03-22 23:12:00,
2013-03-22 18:22:00,39.0,35.0,30.00,NE,39,3.0,32.0,86,0.00,,,0.00,,2013-03-22 23:22:00,
2013-03-22 18:32:00,39.0,35.0,30.00,NE,37,0.0,32.0,86,0.00,,,0.00,,2013-03-22 23:32:00,
2013-03-22 18:42:00,39.0,35.0,30.00,NE,37,0.0,32.0,86,0.00,,,0.00,,2013-03-22 23:42:00,
2013-03-22 18:52:00,38.0,34.0,30.00,North,5,2.0,32.0,86,0.00,,,0.00,,2013-03-22 23:52:00,
2013-03-22 19:02:00,37.0,33.0,30.00,NNE,27,2.0,32.0,86,0.00,,,0.00,,2013-03-23 00:02:00,
2013-03-22 19:12:00,37.0,33.0,30.00,NNE,27,2.0,32.0,86,0.00,,,0.00,,2013-03-23 00:12:00,
2013-03-22 19:23:00,36.0,32.0,30.00,NE,34,2.0,32.0,86,0.00,,,0.00,,2013-03-23 00:23:00,
2013-03-22 19:32:00,35.0,31.0,30.00,NE,35,1.0,32.0,86,0.00,,,0.00,,2013-03-23 00:32:00,
2013-03-22 19:42:00,35.0,31.0,30.00,NNE,24,1.0,32.0,86,0.00,,,0.00,,2013-03-23 00:42:00,
2013-03-22 19:52:00,35.0,31.0,30.00,NNE,24,1.0,32.0,86,0.00,,,0.00,,2013-03-23 00:52:00,
2013-03-22 20:03:00,35.0,31.0,30.00,NNE,14,0.0,32.0,86,0.00,,,0.00,,2013-03-23 01:03:00,
2013-03-22 20:12:00,35.0,31.0,30.00,NNE,14,0.0,32.0,86,0.00,,,0.00,,2013-03-23 01:12:00,
2013-03-22 20:22:00,34.0,30.0,30.00,NNE,19,1.0,32.0,86,0.00,,,0.00,,2013-03-23 01:22:00,
2013-03-22 20:32:00,34.0,30.0,30.00,NNE,23,1.0,32.0,86,0.00,,,0.00,,2013-03-23 01:32:00,
2013-03-22 20:42:00,34.0,30.0,30.00,NNE,23,1.0,32.0,86,0.00,,,0.00,,2013-03-23 01:42:00,
2013-03-22 20:52:00,34.0,30.0,30.00,North,11,2.0,32.0,86,0.00,,,0.00,,2013-03-23 01:52:00,
2013-03-22 21:02:00,34.0,30.0,30.00,North,7,1.0,32.0,86,0.00,,,0.00,,2013-03-23 02:02:00,
2013-03-22 21:12:00,34.0,30.0,30.00,North,7,1.0,32.0,86,0.00,,,0.00,,2013-03-23 02:12:00,
2013-03-22 21:22:00,33.0,29.0,30.00,NNE,17,0.0,32.0,86,0.00,,,0.00,,2013-03-23 02:22:00,
2013-03-22 21:32:00,32.0,28.0,30.00,North,7,0.0,32.0,86,0.00,,,0.00,,2013-03-23 02:32:00,
2013-03-22 21:42:00,32.0,28.0,30.00,North,7,0.0,32.0,86,0.00,,,0.00,,2013-03-23 02:42:00,
2013-03-22 21:52:00,33.0,29.0,30.00,North,10,0.0,32.0,86,0.00,,,0.00,,2013-03-23 02:52:00,
2013-03-22 22:02:00,33.0,29.0,30.00,ENE,62,2.0,32.0,86,0.00,,,0.00,,2013-03-23 03:02:00,
2013-03-22 22:12:00,33.0,29.0,30.00,ENE,62,2.0,32.0,86,0.00,,,0.00,,2013-03-23 03:12:00,
2013-03-22 22:22:00,33.0,29.0,30.00,NE,40,2.0,32.0,86,0.00,,,0.00,,2013-03-23 03:22:00,
2013-03-22 22:33:00,32.0,28.0,30.00,NNE,21,1.0,32.0,86,0.00,,,0.00,,2013-03-23 03:33:00,
2013-03-22 22:43:00,32.0,28.0,30.00,NNE,21,1.0,32.0,86,0.00,,,0.00,,2013-03-23 03:43:00,
2013-03-22 22:53:00,32.0,28.0,30.00,NE,52,2.0,32.0,86,0.00,,,0.00,,2013-03-23 03:53:00,
2013-03-22 23:02:00,31.0,27.0,30.00,NE,51,2.0,32.0,86,0.00,,,0.00,,2013-03-23 04:02:00,
2013-03-22 23:12:00,31.0,27.0,30.00,NE,51,2.0,32.0,86,0.00,,,0.00,,2013-03-23 04:12:00,
2013-03-22 23:23:00,31.0,27.0,30.00,NE,43,2.0,32.0,86,0.00,,,0.00,,2013-03-23 04:23:00,
2013-03-22 23:32:00,30.0,26.0,30.00,NE,53,3.0,32.0,86,0.00,,,0.00,,2013-03-23 04:32:00,
2013-03-22 23:43:00,30.0,26.0,30.00,NE,53,3.0,32.0,86,0.00,,,0.00,,2013-03-23 04:43:00,
2013-03-22 23:53:00,30.0,26.0,30.00,NE,46,3.0,32.0,86,0.00,,,0.00,,2013-03-23 04:53:00,